Change the Weather History Date:

Saturday, May 24, 2014

  Actual Average Record
Temperature  
Mean Temperature 54 °F 53 °F  
Max Temperature 61 °F 61 °F 83 °F (1993)
Min Temperature 47 °F 45 °F 33 °F (2000)
Degree Days  
Heating Degree Days 11 12  
Month to date heating degree days 235 342  
Since 1 July heating degree days 4517 5384  
Cooling Degree Days 0 0  
Month to date cooling degree days 2 0  
Year to date cooling degree days 4 0  
Growing Degree Days 4 (Base 50)    
Moisture  
Dew Point 51 °F    
Average Humidity 82    
Maximum Humidity 100    
Minimum Humidity 64    
Precipitation  
Precipitation 0.01 in 0.15 in 2.83 in (1974)
Month to date precipitation 3.49 4.05  
Year to date precipitation 51.77 47.69  
Sea Level Pressure  
Sea Level Pressure 30.18 in    
Wind  
Wind Speed 4 mph (West)    
Max Wind Speed 14 mph    
Max Gust Speed 17 mph    
Visibility 4 miles    
Events Rain    
T = Trace of Precipitation, MM = Missing Value Source: NWS Daily Summary

Daily Weather History Graph

Daily Weather History Graph

Search for Another Location

Airport or City:

Trip Planner

Search our weather history database for the weather conditions in past years. The results will help you decide how hot, cold, wet, or windy it might be!

Date:

Astronomy

May. 24, 2014 Rise Set
Actual Time 5:29 AM PDT 9:01 PM PDT
Civil Twilight 4:51 AM PDT 9:39 PM PDT
Nautical Twilight 3:59 AM PDT 10:31 PM PDT
Astronomical Twilight 2:50 AM PDT 11:41 PM PDT
Moon 3:21 AM PDT (5/24) 4:47 PM PDT (5/24)
Length of Visible Light 16h 48m
Length of Day
15h 31m
Waning Crescent, 17% of the Moon is Illuminated
May 24
Waning Crescent
May 28
New
Jun 5
First Quarter
Jun 12
Full
Jun 19
Last Quarter

Hourly Weather History & Observations

Time (PDT) Temp. Dew Point Humidity Pressure Visibility Wind Dir Wind Speed Gust Speed Precip Events Conditions
12:18 AM 52.0 °F 52.0 °F 100% 30.17 in 2.0 mi WNW 3.5 mph - 0.00 in Rain Light Rain
12:27 AM 52.0 °F 52.0 °F 100% 30.17 in 2.0 mi Calm Calm - 0.00 in Rain Light Rain
12:35 AM 52.0 °F 52.0 °F 100% 30.17 in 5.0 mi Calm Calm - 0.00 in   Overcast
12:53 AM 52.0 °F 52.0 °F 100% 30.17 in 5.0 mi Calm Calm - 0.00 in   Overcast
1:21 AM 52.0 °F 51.1 °F 97% 30.17 in 1.8 mi Calm Calm - N/A   Overcast
1:24 AM 52.0 °F 51.1 °F 97% 30.16 in 1.0 mi Calm Calm - N/A   Overcast
1:32 AM 51.8 °F 51.8 °F 100% 30.17 in 0.8 mi Calm Calm - N/A   Overcast
1:34 AM 52.0 °F 51.1 °F 97% 30.17 in 1.0 mi Calm Calm - N/A   Overcast
1:44 AM 51.1 °F 51.1 °F 100% 30.17 in 2.0 mi Calm Calm - N/A   Overcast
1:53 AM 51.1 °F 51.1 °F 100% 30.17 in 6.0 mi Calm Calm - N/A   Overcast
2:22 AM 52.0 °F 51.1 °F 97% 30.17 in 6.0 mi Calm Calm - N/A   Overcast
2:53 AM 52.0 °F 52.0 °F 100% 30.18 in 3.0 mi Calm Calm - N/A   Overcast
2:56 AM 52.0 °F 52.0 °F 100% 30.18 in 1.5 mi Calm Calm - N/A   Overcast
3:03 AM 52.0 °F 52.0 °F 100% 30.18 in 0.8 mi Calm Calm - N/A   Overcast
3:21 AM 52.0 °F 52.0 °F 100% 30.18 in 1.2 mi Calm Calm - N/A   Overcast
3:24 AM 52.0 °F 52.0 °F 100% 30.18 in 2.0 mi Calm Calm - N/A   Overcast
3:33 AM 52.0 °F 52.0 °F 100% 30.18 in 6.0 mi Calm Calm - N/A   Overcast
3:42 AM 52.0 °F 52.0 °F 100% 30.17 in 1.5 mi Calm Calm - N/A   Overcast
3:46 AM 52.0 °F 52.0 °F 100% 30.17 in 0.8 mi Calm Calm - N/A   Overcast
3:53 AM 52.0 °F 52.0 °F 100% 30.17 in 0.8 mi Calm Calm - N/A   Overcast
4:04 AM 52.0 °F 51.1 °F 97% 30.17 in 1.5 mi Calm Calm - N/A   Overcast
4:08 AM 51.1 °F 51.1 °F 100% 30.17 in 3.0 mi Calm Calm - N/A   Overcast
4:42 AM 52.0 °F 52.0 °F 100% 30.18 in 1.8 mi SSW 4.6 mph - N/A   Overcast
4:48 AM 51.8 °F 51.8 °F 100% 30.18 in 2.0 mi Calm Calm - N/A   Overcast
4:53 AM 52.0 °F 52.0 °F 100% 30.18 in 1.8 mi Calm Calm - N/A   Overcast
5:01 AM 52.0 °F 52.0 °F 100% 30.18 in 2.0 mi Calm Calm - N/A   Overcast
5:04 AM 52.0 °F 52.0 °F 100% 30.18 in 3.0 mi Calm Calm - N/A   Overcast
5:23 AM 52.0 °F 51.1 °F 97% 30.18 in 7.0 mi Calm Calm - N/A   Overcast
5:43 AM 52.0 °F 51.1 °F 97% 30.18 in 4.0 mi Calm Calm - N/A   Overcast
5:53 AM 52.0 °F 52.0 °F 100% 30.18 in 4.0 mi Calm Calm - N/A   Overcast
6:24 AM 52.0 °F 52.0 °F 100% 30.18 in 1.8 mi Calm Calm - 0.00 in Rain Light Rain
6:31 AM 52.0 °F 51.1 °F 97% 30.19 in 1.0 mi Calm Calm - 0.00 in Rain Light Rain
6:43 AM 52.0 °F 51.1 °F 97% 30.19 in 2.0 mi Calm Calm - 0.01 in   Overcast
6:53 AM 52.0 °F 51.1 °F 97% 30.19 in 4.0 mi Calm Calm - 0.01 in   Overcast
7:00 AM 52.0 °F 52.0 °F 100% 30.19 in 6.0 mi Calm Calm - N/A   Overcast
7:53 AM 53.1 °F 52.0 °F 96% 30.19 in 7.0 mi Calm Calm - N/A   Overcast
8:14 AM 54.0 °F 51.1 °F 90% 30.19 in 7.0 mi Calm Calm - N/A   Overcast
8:23 AM 54.0 °F 51.1 °F 90% 30.19 in 7.0 mi Calm Calm - N/A   Overcast
8:36 AM 55.0 °F 52.0 °F 89% 30.20 in 7.0 mi Calm Calm - N/A   Overcast
8:53 AM 55.0 °F 52.0 °F 89% 30.20 in 7.0 mi Calm Calm - N/A   Overcast
9:23 AM 55.9 °F 52.0 °F 87% 30.19 in 6.0 mi Calm Calm - N/A   Overcast
9:35 AM 57.0 °F 52.0 °F 83% 30.19 in 7.0 mi Calm Calm - N/A   Overcast
9:43 AM 57.0 °F 51.1 °F 81% 30.20 in 7.0 mi Calm Calm - N/A   Mostly Cloudy
9:53 AM 57.0 °F 51.1 °F 81% 30.20 in 6.0 mi Calm Calm - N/A   Haze
10:01 AM 57.0 °F 51.1 °F 81% 30.19 in 6.0 mi Calm Calm - N/A   Haze
10:31 AM 57.0 °F 51.1 °F 81% 30.20 in 6.0 mi West 5.8 mph - N/A   Haze
10:53 AM 57.2 °F 50.0 °F 77% 30.19 in 6.0 mi NW 5.8 mph - N/A   Haze
11:26 AM 57.9 °F 48.9 °F 72% 30.20 in 6.0 mi WSW 6.9 mph - N/A   Haze
11:36 AM 59.0 °F 48.0 °F 67% 30.20 in 7.0 mi West 8.1 mph - N/A   Mostly Cloudy
11:53 AM 59.0 °F 48.0 °F 67% 30.20 in 7.0 mi West 9.2 mph - N/A   Scattered Clouds
12:53 PM 60.1 °F 51.1 °F 72% 30.20 in 7.0 mi WNW 9.2 mph - N/A   Partly Cloudy
1:53 PM 60.1 °F 50.0 °F 69% 30.21 in 7.0 mi West 11.5 mph - N/A   Mostly Cloudy
2:53 PM 60.1 °F 48.0 °F 64% 30.20 in 7.0 mi West 6.9 mph - N/A   Mostly Cloudy
3:53 PM 59.0 °F 50.0 °F 72% 30.19 in 7.0 mi West 9.2 mph - N/A   Overcast
4:53 PM 60.1 °F 48.9 °F 67% 30.19 in 7.0 mi NW 6.9 mph - N/A   Overcast
5:53 PM 60.1 °F 48.9 °F 67% 30.18 in 7.0 mi West 6.9 mph - N/A   Scattered Clouds
6:53 PM 57.9 °F 48.9 °F 72% 30.17 in 7.0 mi West 6.9 mph - N/A   Clear
7:15 PM 57.9 °F 48.9 °F 72% 30.17 in 1.2 mi Variable 4.6 mph - N/A   Haze
7:23 PM 57.9 °F 48.9 °F 72% 30.17 in 4.0 mi West 5.8 mph - N/A   Haze
7:53 PM 55.4 °F 48.2 °F 77% 30.17 in 6.0 mi WNW 6.9 mph - N/A   Haze
8:53 PM 54.0 °F 50.0 °F 86% 30.17 in 6.0 mi Calm Calm - N/A   Clear
9:53 PM 51.1 °F 48.9 °F 92% 30.18 in 8.0 mi Calm Calm - N/A   Clear
10:53 PM 48.2 °F 46.4 °F 93% 30.15 in 7.0 mi ENE 3.5 mph - N/A   Clear
11:53 PM 48.0 °F 46.0 °F 93% 30.16 in 8.0 mi Calm Calm - N/A   Clear